Terug naar catalogus

SL-8 DEB

ActiefLEO
NORAD 21408·DEBRIS·🇷🇺 Russia

Gelanceerd Feb 12, 1991 vanaf Plesetsk Cosmodrome

Loading…

Volgende Passages (komende 24 uur)

TLE

VersSource: Space-Track

Epoch: Sep 14, 2026, 06:36 UTC

1 21408U 91009BX  26257.27528291  .00000019  00000-0  32569-3 0  9990
2 21408  74.0267 197.4439 0201228 329.5049 183.0650 12.15997501576266

Volg SL-8 DEB in realtime met AllMySat

Download on the App Store